Weather History for KMLF - June, 2012

Change the Weather History Date:

Friday, June 22, 2012

  Actual Average Record
Temperature  
Mean Temperature 74 °F -  
Max Temperature 93 °F 87 °F 99 °F (2007)
Min Temperature 55 °F 49 °F 43 °F (1998)
Cooling Degree Days 9    
Growing Degree Days 24 (Base 50)    
Moisture  
Dew Point 21 °F    
Average Humidity 11    
Maximum Humidity 22    
Minimum Humidity 4    
Precipitation  
Precipitation 0.00 in - - ()
Sea Level Pressure  
Sea Level Pressure 29.62 in    
Wind  
Wind Speed 18 mph (SSW)    
Max Wind Speed 33 mph    
Max Gust Speed 44 mph    
Visibility 10 miles    
Events      
Averages and records for this station are not official NWS values.
T = Trace of Precipitation, MM = Missing Value Source: NWS Daily Summary

Daily Weather History Graph

Daily Weather History Graph

Search for Another Location

Airport or City:

Trip Planner

Search our weather history database for the weather conditions in past years. The results will help you decide how hot, cold, wet, or windy it might be!

Date:

Astronomy

Jun. 22, 2012 Rise Set
Actual Time 6:08 AM MDT 8:59 PM MDT
Civil Twilight 5:36 AM MDT 9:31 PM MDT
Nautical Twilight 4:57 AM MDT 10:11 PM MDT
Astronomical Twilight 4:11 AM MDT 10:56 PM MDT
Moon 9:10 AM MDT (6/22) 11:01 PM MDT (6/22)
Length of Visible Light 15h 54m
Length of Day
14h 50m
Waxing Crescent, 10% of the Moon is Illuminated
Jun 22
Waxing Crescent
Jun 26
First Quarter
Jul 3
Full
Jul 10
Last Quarter
Jul 18
New

Hourly Weather History & Observations

Time (MDT) Temp. Dew Point Humidity Pressure Visibility Wind Dir Wind Speed Gust Speed Precip Events Conditions
12:52 AM 69.1 °F 18.0 °F 14% 29.66 in 10.0 mi SSW 19.6 mph - N/A   Clear
1:52 AM 66.0 °F 17.1 °F 15% 29.65 in 10.0 mi South 12.7 mph - N/A   Clear
2:52 AM 64.9 °F 19.0 °F 17% 29.65 in 10.0 mi SSW 16.1 mph - N/A   Clear
3:52 AM 66.9 °F 16.0 °F 14% 29.64 in 10.0 mi South 17.3 mph - N/A   Clear
4:52 AM 66.0 °F 17.1 °F 15% 29.65 in 10.0 mi South 12.7 mph - N/A   Clear
5:52 AM 57.9 °F 19.0 °F 22% 29.68 in 10.0 mi SW 10.4 mph - N/A   Clear
6:52 AM 63.0 °F 18.0 °F 18% 29.67 in 10.0 mi SW 11.5 mph - N/A   Clear
7:52 AM 71.1 °F 21.9 °F 16% 29.68 in 10.0 mi SSW 10.4 mph - N/A   Clear
8:52 AM 78.1 °F 30.9 °F 18% 29.67 in 10.0 mi South 16.1 mph - N/A   Clear
9:52 AM 82.0 °F 32.0 °F 16% 29.68 in 10.0 mi South 25.3 mph 32.2 mph N/A   Clear
10:52 AM 84.0 °F 30.9 °F 15% 29.66 in 10.0 mi South 27.6 mph 41.4 mph N/A   Clear
11:52 AM 88.0 °F 30.0 °F 12% 29.65 in 10.0 mi South 28.8 mph 35.7 mph N/A   Clear
12:52 PM 89.1 °F 26.1 °F 10% 29.64 in 10.0 mi SSW 20.7 mph 40.3 mph N/A   Clear
1:52 PM 91.9 °F 23.0 °F 8% 29.63 in 10.0 mi South 20.7 mph 34.5 mph N/A   Clear
2:52 PM 93.0 °F 19.9 °F 7% 29.61 in 10.0 mi SSW 21.9 mph 34.5 mph N/A   Clear
3:52 PM 93.0 °F 19.0 °F 7% 29.59 in 10.0 mi SW 25.3 mph 39.1 mph N/A   Clear
4:52 PM 91.9 °F 21.0 °F 8% 29.57 in 10.0 mi SW 32.2 mph 43.7 mph N/A   Clear
5:00 PM - - N/A% - - North - - N/A   Unknown
5:52 PM 91.9 °F 19.9 °F 7% 29.57 in 10.0 mi SW 29.9 mph 40.3 mph N/A   Clear
6:52 PM 89.1 °F 16.0 °F 7% 29.55 in 10.0 mi SW 33.4 mph 40.3 mph N/A   Clear
7:52 PM 86.0 °F 16.0 °F 7% 29.55 in 10.0 mi SW 27.6 mph 38.0 mph N/A   Clear
8:52 PM 82.0 °F 16.0 °F 8% 29.55 in 10.0 mi SW 21.9 mph 28.8 mph N/A   Clear
9:52 PM 75.0 °F 17.1 °F 11% 29.58 in 10.0 mi SE 5.8 mph - N/A   Clear
10:52 PM 69.1 °F 19.9 °F 15% 29.61 in 10.0 mi South 5.8 mph - N/A   Clear
11:52 PM 70.0 °F 18.0 °F 14% 29.60 in 10.0 mi South 9.2 mph - N/A   Clear